www.pogodaiklimat.ru

Погода и климат >> Архив погоды >> Россия >> Дагестан >> Касумкент


ПОГОДА в Касумкенте

  • Прогноз погоды в Касумкенте
  • Монитор погоды в Касумкенте

АРХИВ ПОГОДЫ в Касумкенте

Время (UTC), дата Ветер
(напр.,м/с)
 
Видим.   Явления Облачность Т
(С)
Тd
(С)
f
(%)
Тe
(С)
Тes
(С)
Комфортность P
(гПа)
Po
(гПа)
Тmin
(С)
Tmax
(С)
R
(мм)
R24
(мм)
S
(см)
18 19.05 Ю 1 500 м туман ?/? +16.0 +15.3 96 +17 +17 1011.8 957.0
21 19.05 ЮВ 1 10 км 10/10 600 м
[Cb calv]
+16.3 +15.2 93 +17 +17 1013.4 958.6
00 20.05 СЗ 1 10 км {дождь} 10/10 600 м
[Cb calv]
+14.6 +13.8 95 +15 +15 1012.3 957.2
03 20.05 З 2 20 км 10/10 600 м
[Cb calv]
+14.7 +11.9 83 +14 +14 1012.7 957.6 +13.8 0.5
06 20.05 штиль 0 20 км 10/10 600 м
[Sc diur, vesp]
+20.1 +11.2 57 +21 +21 комфорт 1013.8 959.5
09 20.05 ЮВ 2 50 км 3/0
[Ci sp]
+23.5 +12.9 51 +26 +44 жарко 1013.1 959.5
12 20.05 С 1 20 км 10/10 600 м
[Cb calv]
+15.9 +10.6 71 +17 +17 1016.3 961.2
15 20.05 штиль 0 20 км слаб. дождь 10/10 300 м
[Cb cap]
+15.7 +12.6 82 +16 +16 1017.0 961.9 +24.2 3
18 20.05 З 1 4000 м {дождь} 10/10 600 м
[Cb calv]
+14.0 +12.0 88 +14 +14 1017.9 962.3
21 20.05 штиль 0 10 км 10/10 600 м
[Cb calv]
+13.9 +12.8 93 +13 +13 1018.7 963.1
00 21.05 штиль 0 10 км 10/10 600 м
[Cb calv]
+13.4 +12.7 96 +13 +13 1019.0 963.3
03 21.05 штиль 0 20 км 10/10 600 м
[Sc diur, vesp]
+14.0 +12.7 92 +14 +14 1020.1 964.5 +13.3 1
06 21.05 СВ 2 20 км 10/10 600 м
[Cu hum]
+16.3 +12.2 77 +16 +16 1020.2 965.0
09 21.05 СВ 1 20 км 10/10 600 м
[Cu hum]
+17.9 +12.5 71 +19 +19 1020.3 965.4
12 21.05 В 2 20 км 10/10 600 м
[Cu hum]
+17.7 +8.8 56 +18 +18 1020.5 965.4
15 21.05 СВ 1 20 км 10/10 600 м
[Cu hum]
+15.9 +6.5 54 +17 +17 1021.2 965.7 +20.0
18 21.05 штиль 0 10 км ясно +11.5 +7.7 77 +11 +11 1022.1 965.7
21 21.05 штиль 0 10 км ясно +9.5 +8.0 90 +9 +9 1022.3 965.6
00 22.05 З 2 10 км ясно +9.2 +7.6 90 +7 +7 1021.3 964.6
03 22.05 З 1 50 км ясно +11.8 +8.0 78 +12 +14 1020.5 964.3 +8.1
06 22.05 В 2 50 км ясно +19.3 +5.0 39 +20 +33 опасность
простуды
1017.3 962.7
09 22.05 В 2 50 км ясно +20.0 +7.6 45 +22 +41 комфорт 1014.5 960.2
12 22.05 В 3 50 км ясно +21.1 +10.1 49 +23 +32 комфорт 1013.1 959.1
15 22.05 С 2 50 км ясно +17.6 +9.0 57 +18 +19 1013.0 958.3 +22.0
18 22.05 СЗ 1 10 км 10/10 600 м
[Sc diur, vesp]
+14.1 +10.5 79 +14 +14 1013.8 958.5
21 22.05 З 1 10 км ясно +12.1 +10.5 90 +12 +12 1014.9 959.2
00 23.05 штиль 0 10 км ясно +14.6 +10.4 76 +14 +14 1013.9 958.7
03 23.05 СЗ 1 50 км ясно +16.0 +11.5 75 +17 +19 1013.0 958.0 +11.5
06 23.05 СВ 2 50 км ясно +23.4 +11.5 47 +26 +39 жарко 1011.2 957.8
09 23.05 СВ 3 50 км ясно +24.1 +11.0 44 +25 +42 комфорт 1010.6 957.3
12 23.05 СВ 3 20 км 10/10 600 м
[Cb calv]
+20.8 +11.8 56 +23 +23 комфорт 1011.3 957.4
15 23.05 СВ 2 20 км в посл. час дождь 8/5 600 м
[Cb calv Ac trans Ci fib]
+18.7 +13.2 70 +20 +20 1010.1 955.9 +24.6
18 23.05 штиль 0 10 км ясно +14.0 +11.7 86 +14 +14 1012.9 957.7
21 23.05 штиль 0 10 км 10/10 600 м
[Cb calv]
+15.9 +11.9 77 +16 +16 1012.9 958.0
00 24.05 З 3 10 км ясно +13.4 +9.5 77 +12 +12 1013.5 958.1
03 24.05 З 1 50 км ясно +15.2 +8.7 65 +16 +18 1013.6 958.5 +11.6
06 24.05 В 2 50 км ясно +22.5 +7.3 38 +23 +36 комфорт 1012.1 958.4
09 24.05 В 2 50 км ясно +24.9 +9.2 37 +26 +45 жарко 1010.7 957.5
12 24.05 В 3 20 км 10/10 600 м
[Cb calv]
+21.6 +12.0 54 +24 +24 комфорт 1011.2 957.4
15 24.05 СВ 1 20 км 10/0
[]
+19.8 +12.6 63 +23 +23 комфорт 1012.8 958.6 +26.0
18 24.05 З 1 10 км ясно +14.9 +12.2 84 +15 +15 1014.2 959.0
21 24.05 З 2 10 км ясно +15.1 +8.7 66 +15 +15 1014.6 959.4
00 25.05 З 1 10 км ясно +14.3 +6.4 59 +15 +15 1013.5 958.1
03 25.05 З 1 50 км ясно +16.5 +7.5 55 +17 +20 1012.0 957.2 +13.0
06 25.05 В 1 50 км ясно +25.4 +8.5 34 +26 +41 жарко 1009.3 956.2
09 25.05 В 3 50 км ясно +26.8 +14.5 47 +29 +46 жарко 1007.7 955.0
12 25.05 СВ 2 50 км ясно +25.0 +17.1 62 +29 +40 душно 1005.9 953.1
15 25.05 З 1 20 км в посл. час дождь 10/10 600 м
[Cb calv]
+23.2 +9.5 42 +25 +25 комфорт 1005.1 951.8 +27.8 0.0
18 25.05 З 1 10 км ясно +23.9 +6.6 33 +24 +24 комфорт 1005.7 952.5
21 25.05 З 2
{11}
10 км ясно +17.7 +10.8 64 +18 +18 1009.1 954.7
00 26.05 СЗ 2 10 км ясно +20.1 +7.5 44 +22 +22 комфорт 1008.2 954.2
03 26.05 З 1 50 км ясно +19.6 +9.8 53 +22 +24 комфорт 1011.0 956.8 +15.6
06 26.05 СВ 2 20 км 10/0
[Ac lent]
+21.3 +14.6 66 +24 +27 комфорт 1011.2 957.4
09 26.05 В 1 20 км 8/0
[Ac As]
+23.7 +14.2 55 +26 +36 жарко 1011.4 958.0
12 26.05 В 2 20 км 10/0
[Ac As]
+23.0 +14.3 58 +27 +30 душно 1010.9 957.4
15 26.05 ЮВ 1 20 км 10/10 600 м
[Cb calv]
+20.0 +13.7 67 +23 +23 комфорт 1011.6 957.5 +24.3

 

Местоположение метеостанции Касумкент (Дагестан, Россия): широта 41.67 долгота 48.15 высота над уровнем моря 477 м.

В архиве по умолчанию представлена погода в Касумкенте за последнюю неделю. Архивные данные за месяц целиком и за предыдущие месяцы, начиная с января 2011 года, Вы можете получить, выбрав интересующий диапазон дат из раскрывающегося списка и нажав кнопку "Ввод!".


*Определитесь, кто Вы:
робот инопланетянин человек

Внимание! Время в таблицах - всемирное. Для получения местного времени необходимо прибавить поправку, которая равна 3 ч.

Смотрите также архив погоды в соседних городах и на ближайших метеорологических станциях:

Погода в Ахты (Дагестан, Россия) (40 км)
Погода в Губе (Азербайджан) (45 км)
Погода в Дербенте (Дагестан, Россия) (46 км)
Погода в Габале (Азербайджан) (80 км)
Погода в Сергокале (Дагестан, Россия) (95 км)
Погода в Шеках (Азербайджан) (96 км)
Погода в Изберге (Дагестан, Россия) (98 км)
Погода в Кумухе (Дагестан, Россия) (99 км)
Погода в Геокчае (Азербайджан) (118 км)
Погода в Куппе (Дагестан, Россия) (121 км)

Пояснения к столбцам:

Ветер - указаны скорость ветра в м/с - средняя за 10 мин, порывы в срок и между сроками (в фигурных скобках) и направление, откуда дует ветер: С - северный, СВ - северо-восточный, В - восточный, ЮВ - юго-восточный, Ю - южный, ЮЗ - юго-западный, З - западный, СЗ - северо-западный.
Видимость - горизонтальная дальность видимости в метрах или километрах. При видимости от 1 до 10 км при отсутствии осадков обычно наблюдается дымка, при ухудшении видимости до 1 км и менее - туман. В сухую погоду видимость может ухудшаться дымом, пылью или мглою.
Явления - указаны атмосферные явления, наблюдавшиеся в срок или в последний час перед сроком; фигурными скобками обозначены явления, наблюдавшиеся между сроками (за 1-3 часа до срока); квадратными скобками обозначены град или гололедные отложения с указанием их диаметра в мм.
Облачность - указаны через наклонную черту общая и нижняя облачность в баллах и высота нижней границы облаков в метрах; квадратными скобками обозначены формы облаков: Ci - перистые, Cs - перисто-слоистые, Cc - перисто-кучевые, Ac - высококучевые, As - высокослоистые, Sc - слоисто-кучевые, Ns - слоисто-дождевые, Cu - кучевые, Cb - кучево-дождевые. Подробнее классификацию облаков см. в Атласе облаков (PDF).
T - Температура воздуха - температура, измеренная на высоте 2 м над землей.
Td - Температура точки росы - температура, при понижении до которой содержащийся в воздухе водяной пар достигнет насыщения.
f - Относительная влажность воздуха - влажноcть воздуха, измеренная на высоте 2 м над землей.
Te - Эффективная температура - температура, которую ощущает одетый по сезону человек в тени. Характеристика душности погоды. При расчете учитывается влияние влажности воздуха и скорости ветра на теплоощущения человека.
Tes - Эффективная температура на солнце - температура, которую ощущает человек, с поправкой на солнечный нагрев. Характеристика знойности погоды. Зависит от высоты солнца над горизонтом, облачности и скорости ветра. Ночью, в пасмурную погоду, а также при ветре 12 м/с и более поправка равна нулю.
P - Атмосферное давление - приведенное к уровню моря атмосферное давление.
Po - Атмосферное давление - измеренное на уровне метеостанции атмосферное давление.
Tmin - Минимальная температура - минимум температуры воздуха на высоте 2 м над землей.
Tmax - Максимальная температура - максимум температуры воздуха на высоте 2 м над землей.
R - Количество осадков - Количество выпавших осадков за период времени, мм. При наведении курсора мыши на число - период времени, за который выпало указанное количество осадков.
R24 - Количество осадков - Количество выпавших осадков за 24 часа, мм.
S - Снежный покров - Высота снежного покрова, см. При наведении курсора мыши на число - состояние снежного покрова и степень покрытия местности в баллах.